TimeCST,TemperatureF,Dew PointF,Humidity,Sea Level PressureIn,VisibilityMPH,Wind Direction,Wind SpeedMPH,Gust SpeedMPH,PrecipitationIn,Events,Conditions,WindDirDegrees,DateUTC
12:56 AM,24.1,18.1,78,30.41,10.0,NNW,9.2,-,N/A,,Clear,340,2012-11-27 06:56:00
1:56 AM,21.0,17.1,85,30.43,10.0,NNW,8.1,-,N/A,,Clear,340,2012-11-27 07:56:00
2:56 AM,20.1,15.1,81,30.43,10.0,NNW,8.1,-,N/A,,Clear,340,2012-11-27 08:56:00
3:56 AM,18.1,13.1,81,30.43,10.0,NNW,5.8,-,N/A,,Clear,340,2012-11-27 09:56:00
4:56 AM,18.1,11.1,74,30.42,10.0,NNE,8.1,-,N/A,,Clear,20,2012-11-27 10:56:00
5:56 AM,17.1,11.1,77,30.43,10.0,North,6.9,-,N/A,,Clear,350,2012-11-27 11:56:00
6:56 AM,15.1,10.0,80,30.47,10.0,NNW,5.8,-,N/A,,Clear,330,2012-11-27 12:56:00
7:56 AM,19.0,10.0,68,30.50,10.0,NW,3.5,-,N/A,,Clear,320,2012-11-27 13:56:00
8:56 AM,23.0,12.0,63,30.49,10.0,North,8.1,-,N/A,,Clear,10,2012-11-27 14:56:00
9:56 AM,26.1,12.0,55,30.49,10.0,NNE,5.8,-,N/A,,Clear,30,2012-11-27 15:56:00
10:56 AM,28.0,11.1,49,30.47,10.0,Calm,Calm,-,N/A,,Clear,0,2012-11-27 16:56:00
11:56 AM,31.1,10.0,41,30.44,10.0,NNW,3.5,-,N/A,,Clear,330,2012-11-27 17:56:00
12:56 PM,32.9,9.1,37,30.41,10.0,NW,4.6,-,N/A,,Clear,320,2012-11-27 18:56:00
1:56 PM,34.9,10.0,36,30.38,10.0,Variable,6.9,-,N/A,,Clear,0,2012-11-27 19:56:00
2:56 PM,34.9,9.1,34,30.36,10.0,West,9.2,-,N/A,,Clear,260,2012-11-27 20:56:00
3:56 PM,32.0,11.1,42,30.37,10.0,SW,9.2,-,N/A,,Clear,230,2012-11-27 21:56:00
4:56 PM,29.1,13.1,51,30.36,10.0,SW,6.9,-,N/A,,Clear,230,2012-11-27 22:56:00
5:56 PM,28.0,14.0,56,30.38,10.0,SW,4.6,-,N/A,,Clear,220,2012-11-27 23:56:00
6:56 PM,25.2,14.0,63,30.37,10.0,SSW,6.9,-,N/A,,Clear,210,2012-11-28 00:56:00
7:56 PM,29.1,14.0,53,30.37,10.0,SW,9.2,-,N/A,,Clear,220,2012-11-28 01:56:00
8:56 PM,29.1,15.1,56,30.37,10.0,SW,9.2,-,N/A,,Clear,230,2012-11-28 02:56:00
9:56 PM,29.1,16.2,58,30.36,10.0,SW,9.2,-,N/A,,Clear,230,2012-11-28 03:56:00
10:56 PM,29.1,18.1,64,30.35,10.0,SW,11.5,-,N/A,,Clear,230,2012-11-28 04:56:00
11:56 PM,28.0,18.1,66,30.35,10.0,SW,10.4,-,N/A,,Clear,230,2012-11-28 05:56:00